Location: Newark
(42.8481°N, 0.4872°E)
Time: 16:46:19
(UTC+00:00)

A-11 Canister half - Pass Details

Date: 28 October 2020
Orbit: 1525 x 1683 km, 47.3° (Epoch: 22 November)

Event Time Altitude Azimuth Distance (km) Brightness Sun altitude
Rises 12:09:35 0° 190° (S) 4,824 12.7 33.4°
Reaches altitude 10° 12:13:32 10° 177° (S) 3,815 12.5 33.3°
Maximum altitude 12:20:39 24° 129° (SE) 2,841 11.0 33.1°
Drops below altitude 10° 12:27:37 10° 81° (E) 3,738 10.9 32.8°
Sets 12:31:24 0° 68° (ENE) 4,706 11.3 32.6°
